EUTELSAT 16A

Last updated on Jan. 21, 2021, 6:16 a.m. UTC

1 37836U 11057A   21020.92271782  .00000112  00000-0  00000-0 0  9998
2 37836   0.0640  20.9291 0004952 279.2467 168.4806  1.00271108 26190
UTC
Height (km)
Latitude
Longitude
Inclination
Orbital Period
UTC large
Height (km)
Speed (km/s)
/
Latitude / Longitude
Inclination (degrees)
Orbital Period (minutes)
Azimuth
Elevation
Range (km)
Doppler Factor
iOS Compass Heading
iOS Angle

Next 30 passes for location: Hong Kong

Rise time Rise Azimuth (degrees) Set time Set Azimuth (degrees) Duration Max altitude (degrees)

No matching passes for this satellites